Tracking 29892 objects as of 21-Nov-2024
HD Live streaming from Space Station
objects crossing your sky now

STARLINK-5166

Track STARLINK-5166 now!
10-day predictions
STARLINK-5166 is classified as:


NORAD ID: 54085
Int'l Code: 2022-136AL
Perigee: 545.9 km
Apogee: 547.8 km
Inclination: 53.2 °
Period: 95.4 minutes
Semi major axis: 6917 km
RCS: Unknown
Launch date: October 20, 2022
Source: United States (US)
Launch site: AIR FORCE EASTERN TEST RANGE (AFETR)
Your satellite tracking list
Your tracking list is empty




NASA's NSSDC Master Catalog

Two Line Element Set (TLE):
1 54085U 22136AL  24325.34519197  .00000485  00000-0  48566-4 0  9991
2 54085  53.2171 303.5705 0001392  97.0547 263.0604 15.08846165115375
Source of the keplerian elements: AFSPC